GPS BIIF-12 (PRN 32)

Last updated on Fri Jun 19 2026 17:09:55 GMT+0000 (Coordinated Universal Time)

1 41328U 16007A 26164.87780105 -.00000028 00000+0 00000+0 0 9996 2 41328 55.5220 89.5909 0096120 247.4205 111.5460 2.00551861 75773
UTC large
Height (km)
Speed (km/s)
/
Latitude / Longitude
Inclination (degrees)
Orbital Period (minutes)
Azimuth
Elevation
Range (km)
Doppler Factor

Next 0 passes for location: London (51.5072 / 0.1276)

No passes found over London.
GPS BIIF-12 (PRN 32)